Other Public Products
Issued by NWS Grand Forks, ND

Home | Current Version | Previous Version | Text Only | Print | Product List | Glossary Off
Versions: 1 2 3 4 5 6 7 8 9 10 11 12 13 14 15 16 17 18 19 20 21 22 23 24 25 26 27 28 29 30 31 32 33 34 35 36 37 38 39 40 41 42 43 44 45 46 47 48 49 50

000
FPUS83 KFGF 191831
OPUFGF
PRAIRIE TO PINES WEATHER ROUNDUP
NATIONAL WEATHER SERVICE EASTERN NORTH DAKOTA/GRAND FORKS ND
100 PM CDT THU OCT 19 2017

 **SATELLITE DATA USED TO AUGMENT SKY COVER AT AUTOMATED STATIONS**
 *****  WEATHER ACROSS EASTERN NORTH DAKOTA  *****

CITY           SKY/WX    TMP DP  RH WIND       PRES   REMARKS
GRAND FORKS    PTSUNNY   62  35  36 S17       29.79F
6HR MIN TEMP:  33; 6HR MAX TEMP:  62;

GRAND FORKS AF FAIR      61  34  36 S14       29.78F
GRAND CITY NWS NOT AVBL
BUXTON           N/A     62  40  44 S13         N/A
DEVILS LAKE    FAIR      61  37  41 S9        29.76F
6HR MIN TEMP:  39; 6HR MAX TEMP:  61;

FARGO          FAIR      67  38  34 S22G29    29.82F
6HR MIN TEMP:  38; 6HR MAX TEMP:  67;

WAHPETON ARPT  NOT AVBL
$$

 *****  WEATHER ACROSS CENTRAL AND WESTERN NORTH DAKOTA  *****

CITY           SKY/WX    TMP DP  RH WIND       PRES   REMARKS
JAMESTOWN      FAIR      68  37  32 SW15      29.79F
6HR MIN TEMP:  36; 6HR MAX TEMP:  68;

BISMARCK       FAIR      66  35  31 S3        29.80F
6HR MIN TEMP:  34; 6HR MAX TEMP:  66;

MINOT          FAIR      70  33  25 SW13      29.70F
6HR MIN TEMP:  47; 6HR MAX TEMP:  70;

MINOT AFB      FAIR      69  33  27 W15G24    29.68F
6HR MIN TEMP:  42; 6HR MAX TEMP:  69;

GARRISON         N/A     64  36  35 S7        29.75F
6HR MIN TEMP:  37; 6HR MAX TEMP:  64;

WILLISTON      FAIR      65  37  35 S7        29.71F
6HR MIN TEMP:  35; 6HR MAX TEMP:  65;

DICKINSON      FAIR      78  28  16 SW17      29.76F
6HR MIN TEMP:  41; 6HR MAX TEMP:  78;

HETTINGER      FAIR      77  23  13 W9        29.81F
6HR MIN TEMP:  32; 6HR MAX TEMP:  77;

$$

 *****  OTHER OBSERVATIONS NORTHEAST NORTH DAKOTA  *****

CITY           SKY/WX    TMP DP  RH WIND       PRES   REMARKS
WALHALLA       FAIR     N/A N/A N/A S12       29.73F
LANGDON        FAIR      61  34  36 S16       29.74F
CAVALIER       FAIR      57  32  38 S13G18    29.75F
GRAFTON        FAIR      59  34  38 S14       29.79F
CANDO          FAIR      64  34  32 S9        29.76S
FORT TOTTEN      N/A     65  35  33 S8        29.95S
ROLLA          FAIR      57  32  38 SW14      29.72F
RUGBY          FAIR      64  34  32 S7        29.72F
 ***** THE ABOVE OBSERVATIONS ARE NON NWS ARE NOT QUALITY
        CONTROLLED AND MAY MIS-REPORT RAIN FOR SNOW...
$$

 *****  OTHER OBSERVATIONS SOUTHEAST NORTH DAKOTA *****

CITY           SKY/WX    TMP DP  RH WIND       PRES   REMARKS
COOPERSTOWN    FAIR      66  37  34 S14       29.79F
VALLEY CITY    FAIR      64  39  39 SW16G24   29.82S
OAKES          NOT AVBL
GWINNER        CLEAR     68  37  32 SW20G29   29.82F
BUFFALO          N/A     67  37  33 SW14        N/A
WYNDMERE       NOT AVBL
 ***** THE ABOVE OBSERVATIONS ARE NON NWS ARE NOT QUALITY
       CONTROLLED AND MAY MIS-REPORT RAIN FOR SNOW...
$$

  *****  WEATHER ACROSS NORTHERN MINNESOTA  *****

CITY           SKY/WX    TMP DP  RH WIND       PRES   REMARKS
FLAG ISLAND    FAIR      48  36  61 S10       29.83F
WARROAD        FAIR      63  34  34 S9        29.83F
ROSEAU         FAIR      64  32  29 S15       29.81F
HALLOCK        FAIR      61  28  29 S18       29.77F
THF RVR FALLS  FAIR      64  32  30 S20G25    29.83F
6HR MIN TEMP:  32; 6HR MAX TEMP:  65;

HALSTAD          N/A     66  37  34 SW20        N/A
FOSSTON        FAIR      66  32  28 SW20G25   29.85F
BAUDETTE       FAIR      62  29  28 S10       29.86F
6HR MIN TEMP:  36; 6HR MAX TEMP:  62;

WASKISH        FAIR      66  30  26 S6        29.87F
CROOKSTON      FAIR      63  34  34 S17       29.82F
$$
  *****  WEATHER ACROSS CENTRAL AND WEST MINNESOTA  *****

CITY           SKY/WX    TMP DP  RH WIND       PRES   REMARKS
BEMIDJI        FAIR      66  34  30 S13G22    29.87F
PARK RAPIDS    FAIR      67  37  33 S18G24    29.91F
6HR MIN TEMP:  34; 6HR MAX TEMP:  68; 6HR PCP: TRACE;

WADENA         FAIR      66  37  34 S15G22    29.92F
DETROIT LAKES  FAIR      66  36  32 SW18      29.89F
MOORHEAD       FAIR      66  36  32 S16G26    29.84F
FERGUS FALLS   FAIR      66  39  37 S20       29.90F
ELBOW LAKE     FAIR      66  40  37 S15       29.92F
MORRIS MN      FAIR      72  39  30 S20       29.90F
STAPLES        FAIR      66  32  28 S13       29.94F
WHEATON        FAIR      70  36  28 S22G29    29.89F
$$
  *****  WEATHER ELSEWHERE ACROSS MINNESOTA  *****

CITY           SKY/WX    TMP DP  RH WIND       PRES   REMARKS
DULUTH         FAIR      62  31  31 SW14      29.99F
6HR MIN TEMP:  39; 6HR MAX TEMP:  62;

INTRNTL FALLS  FAIR      61  23  23 SW10      29.90F
6HR MIN TEMP:  36; 6HR MAX TEMP:  61;

ELY            FAIR      59  21  23 SW14G20   29.96F
CLOQUET        FAIR      63  25  23 S13       29.99F
BRAINERD       FAIR      65  32  29 S14       29.97F
6HR MIN TEMP:  35; 6HR MAX TEMP:  65;

HIBBING        FAIR      61  28  28 SW8       29.96F
6HR MIN TEMP:  35; 6HR MAX TEMP:  61;

ALEXANDRIA     FAIR      67  37  33 S20       29.95F
6HR MIN TEMP:  39; 6HR MAX TEMP:  67;

SAINT CLOUD    FAIR      66  33  29 S16       30.00F
6HR MIN TEMP:  34; 6HR MAX TEMP:  66;

MINNEAPOLIS    FAIR      67  34  29 S13       30.04F
6HR MIN TEMP:  43; 6HR MAX TEMP:  67;

$$

  *****  WEATHER ACROSS SOUTH DAKOTA  *****

CITY           SKY/WX    TMP DP  RH WIND       PRES   REMARKS
SIOUX FALLS    FAIR      71  50  47 S15       29.99F
6HR MIN TEMP:  36; 6HR MAX TEMP:  71;

BROOKINGS      FAIR      68  46  45 S16       29.96F
WATERTOWN      FAIR      66  44  45 S21G31    29.91F
6HR MIN TEMP:  40; 6HR MAX TEMP:  66;

HURON          FAIR      68  42  38 S18G25    29.89F
6HR MIN TEMP:  40; 6HR MAX TEMP:  68;

SISSETON         N/A     73  41  31 SW24G30   29.85F
ABERDEEN       FAIR      69  40  34 S18       29.86F
6HR MIN TEMP:  39; 6HR MAX TEMP:  69;

MITCHELL       FAIR      71  46  40 S16       29.93F
PIERRE         FAIR      72  38  29 S8        29.83F
6HR MIN TEMP:  44; 6HR MAX TEMP:  72;

MOBRIDGE       FAIR      66  41  40 S6        29.79F
RAPID CITY     FAIR      77  25  14 VRB5      29.84F
6HR MIN TEMP:  43; 6HR MAX TEMP:  77;

$$

  *****  SOME WEATHER IN NEARBY STATES *****

CITY           SKY/WX    TMP DP  RH WIND       PRES   REMARKS
GLASGOW MT     FAIR      72  37  28 S12       29.66F
6HR MIN TEMP:  42; 6HR MAX TEMP:  72;

GREAT FALLS MT FAIR      71  17  12 SW22G33   29.66F
6HR MIN TEMP:  58; 6HR MAX TEMP:  71;

CHEYENNE WY    FAIR      71  15  11 SE8       30.07F
6HR MIN TEMP:  39; 6HR MAX TEMP:  71;

SCOTTSBLUFF NE FAIR      69  27  20 VRB3      29.98F
6HR MIN TEMP:  34; 6HR MAX TEMP:  69;

OMAHA NE       FAIR      72  52  49 S12       30.05F
6HR MIN TEMP:  43; 6HR MAX TEMP:  72;

DES MOINES IA  PTSUNNY   72  43  35 E9        30.11F
6HR MIN TEMP:  51; 6HR MAX TEMP:  72;

DAVENPORT IA   FAIR      69  34  27 SE12      30.19F
6HR MIN TEMP:  41; 6HR MAX TEMP:  70;

CHICAGO IL     PTSUNNY   69  25  19 NE6       30.18F
6HR MIN TEMP:  51; 6HR MAX TEMP:  69;

EAU CLAIRE WI  FAIR      66  28  24 S9        30.08F
6HR MIN TEMP:  35; 6HR MAX TEMP:  66;

LA CROSSE WI   FAIR      66  38  35 S12       30.11F
6HR MIN TEMP:  44; 6HR MAX TEMP:  66;

$$

  *****  SOME NATIONAL WEATHER *****

CITY           SKY/WX    TMP DP  RH WIND       PRES   REMARKS
LA GUARDIA NY  FAIR      70  39  32 SW16      30.15F
6HR MIN TEMP:  58; 6HR MAX TEMP:  71;

RALEIGH NC     FAIR      73  53  49 SW7       30.26F



USA.gov is the U.S. government's official web portal to all federal, state and local government web resources and services.